Flag for U.S.A. Weather past 2 weeks in Atascadero, California, U.S.A.

Now
34 °F

Clear.


Feels Like: 31 °F
Forecast: 38 / 73 °F
Wind: 3 mph from South

Location: Paso Robles Municipal Airport

Current Time: Jan 25, 2015 at 6:33:39 AM

Latest Report: Jan 25, 2015 at 5:53 AM


Visibility: 10 mi

Pressure: 30.13 "Hg

Humidity: 85%

Dew point: 30 °F

Location of AtascaderoLocation

Historic Weather in Atascadero — Graph

°F

Atascadero temperature yesterday

Maximum temperature yesterday: 68 °F (at 3:53 PM)
Minimum temperature yesterday: 34 °F (at 5:53 AM)
Average temperature yesterday: 48 °F

Past Weeks' High & Low Weather Summary

 TemperatureHumidityPressure
High70 °F (Jan 17, 2:53 PM)97% (Jan 12, 2:53 AM)30.37 "Hg (Jan 12, 2:53 AM)
Low32 °F (Jan 23, 6:53 AM)31% (Jan 23, 2:53 PM)29.92 "Hg (Jan 10, 2:53 PM)
Average49 °F77%30.18 "Hg
* Reported Jan 10 4:53 AM — Jan 25 4:53 AM, Atascadero, Weather by CustomWeather, © 2014

Note: Actual official high and low records may vary slightly from our data, if they occured in-between our weather recording intervals... More about our weather records

Advertising

Atascadero weather history for previous 24 hours

 ConditionsComfort  
Time TempWeatherWind HumidityBarometerVisibility
4:53 AM
Jan 25
34 °FClear.No wind85%30.13 "Hg10 mi
3:53 AM35 °FClear.No wind85%30.14 "Hg10 mi
2:53 AM38 °FClear.3 mph83%30.14 "Hg10 mi
1:53 AM37 °FClear.No wind82%30.15 "Hg10 mi
12:53 AM42 °FClear.5 mph73%30.15 "Hg10 mi
11:53 PM
Jan 24
39 °FClear.12 mph82%30.16 "Hg9 mi
10:53 PM43 °FClear.No wind76%30.16 "Hg10 mi
9:53 PM46 °FClear.No wind68%30.15 "Hg10 mi
8:53 PM50 °FClear.7 mph63%30.14 "Hg10 mi
7:53 PM46 °FClear.6 mph71%30.13 "Hg10 mi
6:53 PM50 °FClear.No wind66%30.12 "Hg10 mi
5:53 PM61 °FClear.5 mph48%30.10 "Hg10 mi
4:53 PM65 °FSunny.5 mph45%30.09 "Hg10 mi
3:53 PM68 °FSunny.7 mph40%30.07 "Hg10 mi
2:53 PM67 °FSunny.5 mph39%30.09 "Hg10 mi
1:53 PM66 °FSunny.7 mph40%30.11 "Hg10 mi
12:53 PM62 °FSunny.7 mph43%30.13 "Hg10 mi
11:53 AM59 °FSunny.6 mph51%30.17 "Hg10 mi
10:53 AM53 °FSunny.5 mph61%30.21 "Hg10 mi
9:53 AM47 °FSunny.7 mph71%30.24 "Hg10 mi
8:53 AM40 °FSunny.No wind83%30.24 "Hg9 mi
8:02 AM36 °FFog.No wind89%30.24 "Hg3 mi
7:53 AM34 °FFog.No wind88%30.24 "Hg2 mi
6:53 AM34 °FFog.No wind88%30.24 "Hg5 mi
Weather by CustomWeather, © 2014

See weather overviewHow to use our weather pages